Lawrence, MA

1:22 PM EDT on April 23, 2018 (GMT -0400)
Lawrence Municipal

Weather History for KLWM - May, 2014

Change the Weather History Date:

Monday, May 19, 2014

  Actual Average Record
Temperature  
Mean Temperature 57 °F -  
Max Temperature 66 °F 68 °F 91 °F (1962)
Min Temperature 48 °F 47 °F 35 °F (1944)
Degree Days  
Heating Degree Days 8    
Growing Degree Days 7 (Base 50)    
Moisture  
Dew Point 36 °F    
Average Humidity 49    
Maximum Humidity 83    
Minimum Humidity 30    
Precipitation  
Precipitation 0.09 in - - ()
Sea Level Pressure  
Sea Level Pressure 30.06 in    
Wind  
Wind Speed 9 mph (NW)    
Max Wind Speed 18 mph    
Max Gust Speed 30 mph    
Visibility 10 miles    
Events Rain    
Averages and records for this station are not official NWS values.
T = Trace of Precipitation, MM = Missing Value Source: NWS Daily Summary

Daily Weather History Graph

Daily Weather History Graph

Search for Another Location

Airport or City:

Astronomy

May. 19, 2014 Rise Set
Actual Time 5:18 AM EDT 8:04 PM EDT
Civil Twilight 4:45 AM EDT 8:37 PM EDT
Nautical Twilight 4:03 AM EDT 9:18 PM EDT
Astronomical Twilight 3:16 AM EDT 10:06 PM EDT
Moon No Moon Rise 10:14 AM EDT (5/19)
Length of Visible Light 15h 51m
Length of Day
14h 46m
Waning Gibbous, 71% of the Moon is Illuminated
May 19
Waning Gibbous
May 21
Last Quarter
May 28
New
Jun 5
First Quarter
Jun 13
Full

Hourly Weather History & Observations

Time (EDT) Temp. Dew Point Humidity Pressure Visibility Wind Dir Wind Speed Gust Speed Precip Events Conditions
12:54 AM 55.9 °F 30.0 °F 37% 30.07 in 10.0 mi NW 9.2 mph - N/A   Overcast
1:54 AM 54.0 °F 30.0 °F 40% 30.07 in 10.0 mi NNW 6.9 mph - N/A   Clear
2:54 AM 52.0 °F 30.9 °F 45% 30.07 in 10.0 mi WNW 6.9 mph - N/A   Clear
3:54 AM 51.1 °F 30.9 °F 46% 30.08 in 10.0 mi NNW 3.5 mph - N/A   Clear
4:54 AM 50.0 °F 30.9 °F 48% 30.09 in 10.0 mi WNW 4.6 mph - N/A   Clear
5:54 AM 48.9 °F 30.9 °F 50% 30.09 in 10.0 mi NW 6.9 mph - N/A   Clear
6:54 AM 52.0 °F 32.0 °F 47% 30.10 in 10.0 mi WNW 9.2 mph - N/A   Clear
7:54 AM 55.0 °F 33.1 °F 43% 30.09 in 10.0 mi NW 9.2 mph - N/A   Clear
9:54 AM 61.0 °F 35.1 °F 38% 30.07 in 10.0 mi WNW 11.5 mph 19.6 mph N/A   Mostly Cloudy
10:54 AM 62.1 °F 34.0 °F 35% 30.06 in 10.0 mi NW 11.5 mph 21.9 mph N/A   Mostly Cloudy
11:54 AM 64.9 °F 35.1 °F 33% 30.04 in 10.0 mi WNW 11.5 mph 21.9 mph N/A   Partly Cloudy
12:54 PM 63.0 °F 32.0 °F 31% 30.03 in 10.0 mi WNW 13.8 mph 24.2 mph N/A   Mostly Cloudy
1:54 PM 66.2 °F 33.8 °F 30% 30.02 in 10.0 mi NW 11.5 mph 25.3 mph N/A   Scattered Clouds
2:54 PM 61.0 °F 34.0 °F 36% 30.03 in 10.0 mi North 18.4 mph 28.8 mph N/A   Overcast
3:01 PM 61.0 °F 34.0 °F 36% 30.03 in 10.0 mi NNW 12.7 mph 25.3 mph 0.00 in Rain Light Rain
3:54 PM 62.1 °F 36.0 °F 38% 30.03 in 10.0 mi North 15.0 mph 25.3 mph 0.00 in   Overcast
4:54 PM 62.1 °F 37.0 °F 39% 30.04 in 10.0 mi NNW 18.4 mph 29.9 mph 0.00 in   Mostly Cloudy
5:54 PM 60.1 °F 37.9 °F 44% 30.05 in 10.0 mi North 12.7 mph - N/A   Overcast
6:54 PM 55.9 °F 42.1 °F 60% 30.06 in 10.0 mi North 10.4 mph - 0.00 in Rain Light Rain
7:54 PM 53.1 °F 45.0 °F 74% 30.07 in 9.0 mi North 8.1 mph - 0.02 in Rain Light Rain
8:54 PM 52.0 °F 46.0 °F 80% 30.07 in 7.0 mi NNW 5.8 mph - 0.03 in Rain Light Rain
9:54 PM 51.1 °F 46.0 °F 83% 30.07 in 10.0 mi NE 11.5 mph - 0.01 in Rain Light Rain
10:54 PM 51.1 °F 46.0 °F 83% 30.05 in 10.0 mi Calm Calm - 0.02 in Rain Light Rain
11:54 PM 52.0 °F 46.0 °F 80% 30.02 in 10.0 mi West 4.6 mph - 0.01 in   Overcast